Flag for Myanmar Weather past 2 weeks in Yangon, Myanmar

77 °F

Passing clouds.

Feels Like: 78 °F
Forecast: 79 / 85 °F
Wind: No wind

Location: Chiang Mai Airport

Current Time: Oct 9, 2015 at 5:29:17 AM

Latest Report: Oct 9, 2015 at 3:30 AM

Visibility: N/A

Pressure: 29.86 "Hg

Humidity: 83%

Dew point: 72 °F

Location of YangonLocation

Historic Weather in Yangon — Graph


Yangon temperature yesterday

Maximum temperature yesterday: 91 °F (at 3:30 PM)
Minimum temperature yesterday: 75 °F (at 6:00 AM)
Average temperature yesterday: 84 °F

Past Weeks' High & Low Weather Summary

High95 °F (Sep 29, 3:30 PM)94% (Sep 25, 6:00 AM)30.04 "Hg (Sep 25, 6:00 AM)
Low73 °F (Oct 2, 4:00 AM)39% (Sep 24, 2:30 PM)29.68 "Hg (Sep 24, 3:30 PM)
Average83 °F68%29.88 "Hg
* Reported Sep 24 3:30 AM — Oct 9 3:30 AM, Yangon, Weather by CustomWeather, © 2015

Note: Actual official high and low records may vary slightly from our data, if they occured in-between our weather recording intervals... More about our weather records


Yangon weather history for previous 24 hours

Time TempWeatherWind HumidityBarometerVisibility
3:30 AM
Fri, Oct 9
77 °FPassing clouds.No wind83%29.86 "HgN/A
2:00 AM79 °FPassing clouds.No wind84%29.89 "HgN/A
1:30 AM79 °FPassing clouds.5 mph84%29.89 "HgN/A
1:00 AM79 °FPassing clouds.1 mph84%29.89 "HgN/A
12:30 AM79 °FPassing clouds.No wind84%29.92 "HgN/A
11:30 PM
Thu, Oct 8
79 °FPassing clouds.No wind79%29.92 "HgN/A
10:30 PM81 °FPassing clouds.5 mph79%29.92 "HgN/A
10:00 PM82 °FPassing clouds.3 mph70%29.92 "HgN/A
9:30 PM82 °FPassing clouds.3 mph70%29.92 "HgN/A
9:00 PM82 °FPassing clouds.6 mph70%29.92 "HgN/A
8:30 PM81 °FPassing clouds.3 mph79%29.92 "HgN/A
8:00 PM81 °FPassing clouds.No wind74%29.89 "HgN/A
7:30 PM81 °FPassing clouds.3 mph70%29.89 "HgN/A
7:00 PM84 °FPassing clouds.8 mph62%29.86 "HgN/A
6:30 PM86 °FPassing clouds.5 mph62%29.86 "HgN/A
6:00 PM86 °FPassing clouds.6 mph59%29.83 "HgN/A
5:30 PM88 °FScattered clouds.6 mph55%29.80 "HgN/A
5:00 PM90 °FScattered clouds.8 mph52%29.80 "HgN/A
4:30 PM90 °FScattered clouds.7 mph49%29.80 "HgN/A
4:00 PM91 °FScattered clouds.5 mph46%29.80 "HgN/A
3:30 PM91 °FScattered clouds.5 mph46%29.80 "HgN/A
3:00 PM90 °FScattered clouds.3 mph49%29.80 "HgN/A
2:30 PM90 °FScattered clouds.6 mph46%29.83 "HgN/A
2:00 PM90 °FScattered clouds.8 mph46%29.83 "HgN/A
1:00 PM90 °FScattered clouds.8 mph49%29.86 "HgN/A
12:30 PM88 °FScattered clouds.7 mph52%29.89 "HgN/A
12:00 PM88 °FPartly sunny.8 mph52%29.92 "HgN/A
11:30 AM88 °FPartly sunny.6 mph52%29.92 "HgN/A
11:00 AM86 °FPartly sunny.7 mph59%29.95 "HgN/A
10:30 AM86 °FPartly sunny.6 mph55%29.95 "HgN/A
10:00 AM86 °FPassing clouds.6 mph59%29.98 "HgN/A
9:30 AM84 °FPassing clouds.7 mph62%29.98 "HgN/A
9:00 AM84 °FPassing clouds.5 mph58%29.98 "HgN/A
8:30 AM84 °FPassing clouds.2 mph58%29.98 "HgN/A
8:00 AM82 °FPassing clouds.No wind66%29.98 "HgN/A
7:30 AM82 °FPassing clouds.No wind66%29.98 "HgN/A
7:00 AM77 °FPassing clouds.2 mph83%29.95 "HgN/A
6:30 AM75 °FPassing clouds.3 mph89%29.95 "HgN/A
6:00 AM75 °FScattered clouds.1 mph83%29.95 "HgN/A
5:30 AM77 °FPassing clouds.No wind79%29.92 "HgN/A
Weather by CustomWeather, © 2015

See weather overviewHow to use our weather pages